Theta_e
310 310 310 311 311 311 312 312 313 313 313 313 313 312 312 310 310 310 310 310 310 308 307 304 305 305 304 302 300 293 292 292 287 285 286 286 286 285 285 284 283 283 282
310 310 310 310 310 310 310 311 312 311 312 312 312 312 312 311 309 309 308 308 308 306 306 305 304 304 301 299 297 295 295 288 290 285 286 285 285 285 285 284 283 282 283
310 310 310 310 309 309 309 309 309 310 311 311 311 312 311 311 310 310 307 307 307 306 305 305 304 302 298 295 295 294 290 290 289 288 284 285 284 285 284 283 282 283 283
310 309 309 310 309 308 308 308 307 308 309 309 309 309 309 309 308 308 306 304 304 304 304 304 303 303 297 294 293 291 289 289 288 285 284 284 283 283 283 282 282 283 283
309 309 309 309 308 307 307 307 306 307 307 307 307 307 306 305 305 304 303 302 301 300 300 300 299 298 297 296 293 290 289 288 285 284 283 283 282 283 283 284 283 284 283
309 309 308 308 307 306 306 306 305 305 306 306 305 305 304 302 302 302 300 299 298 296 296 294 293 293 293 293 291 289 289 287 285 284 285 285 287 285 285 284 286 283 281
306 306 306 305 305 305 305 304 304 304 304 304 303 301 300 299 298 297 296 295 294 293 292 292 291 290 290 287 287 288 288 285 289 291 289 289 286 288 284 286 286 282 282
302 303 303 303 303 303 303 303 302 301 301 300 299 298 296 296 293 293 291 291 291 290 290 290 289 288 287 288 287 285 285 286 290 292 291 290 289 285 284 285 285 282 282
299 299 299 299 300 300 300 300 299 298 297 296 296 294 293 292 291 290 289 289 287 287 287 287 286 286 286 287 285 285 286 289 290 290 291 288 286 283 283 285 281 282 281
296 296 296 296 296 296 296 296 295 295 294 293 291 290 290 288 288 288 287 286 284 284 284 284 285 287 286 285 286 287 288 288 288 289 286 285 284 284 284 283 283 282 281
293 292 293 293 293 293 293 292 292 291 290 289 287 287 286 286 286 288 286 284 284 283 283 284 284 285 286 287 288 289 289 290 289 287 286 285 284 283 283 283 282 281 280
290 290 290 290 291 291 291 289 289 288 287 285 285 284 284 284 286 287 286 285 284 284 283 284 284 286 287 287 289 288 288 288 288 287 285 284 283 282 282 282 281 280 279
289 288 288 288 288 288 288 286 286 285 285 283 283 283 284 284 285 287 286 285 285 284 284 284 285 286 287 287 288 287 287 287 286 285 284 283 283 282 282 280 279 278 277
287 286 286 286 286 286 285 285 285 284 284 283 283 283 283 284 285 286 286 286 285 284 284 284 284 285 286 286 286 286 286 286 286 285 284 283 282 281 280 279 277 275 274
285 285 285 285 285 285 284 284 284 284 285 285 284 284 283 283 284 285 285 285 285 285 285 285 285 285 285 285 285 285 285 285 284 284 283 282 280 278 277 276 275 273 272
285 285 285 285 285 286 286 287 287 287 287 286 286 286 286 285 285 285 285 286 286 286 285 285 285 285 285 284 284 285 284 283 283 282 281 280 278 276 275 273 272 271 270
285 285 285 285 285 285 285 284 284 284 285 286 286 286 286 286 286 285 285 285 286 286 286 285 285 285 284 284 284 283 282 281 280 279 278 277 276 274 273 271 270 269 267
286 285 284 284 284 284 284 283 282 281 281 282 283 283 284 284 284 285 285 285 285 285 284 283 282 281 281 281 281 281 280 279 277 276 275 274 273 272 271 270 268 267 266
285 285 285 284 284 284 284 283 281 280 279 280 281 281 280 282 282 282 283 282 280 279 278 279 278 277 277 277 277 276 276 275 274 273 273 272 271 270 269 267 266 266 265
284 285 285 285 284 284 283 282 280 279 277 276 276 277 278 279 278 277 277 277 277 276 276 275 275 275 274 274 273 273 272 272 271 271 270 269 268 267 266 265 265 264 264
283 283 283 282 281 281 280 279 279 278 276 275 275 275 276 277 274 274 274 274 274 274 274 273 273 273 272 272 271 271 271 270 269 268 267 266 265 265 264 264 263 263 263
280 279 279 278 278 278 277 277 277 275 274 273 272 271 272 273 272 272 271 271 271 271 270 270 269 268 268 267 267 267 266 266 266 265 265 264 264 264 263 263 262 262 262
277 276 275 275 275 274 274 273 273 272 272 271 271 270 270 270 270 270 269 268 267 267 266 266 266 266 266 265 265 265 265 264 264 263 263 263 263 263 262 262 262 261 261
275 274 273 272 272 271 271 271 271 270 270 269 268 268 268 267 267 267 266 266 266 266 265 265 264 264 264 264 264 264 263 263 263 262 262 262 262 262 261 261 261 261 260
272 271 270 270 269 268 267 267 267 267 267 267 267 267 266 266 266 265 265 265 265 264 264 264 264 263 263 263 263 263 262 262 262 262 261 261 261 261 261 260 260 260 259
268 268 268 268 267 268 267 267 266 266 266 265 265 265 264 264 264 264 264 264 263 263 263 263 263 262 262 262 262 262 262 262 262 261 261 260 260 260 260 259 259 259 259
Wind_Speed
18 21 26 30 33 34 36 37 37 34 33 33 33 33 33 35 41 42 41 43 43 42 41 40 42 42 43 44 41 36 29 16 9 7 18 19 33 32 28 25 22 20 17
19 20 24 28 31 33 34 35 33 34 34 34 33 34 34 34 35 40 41 42 43 40 42 41 40 40 40 39 40 35 30 22 13 14 19 25 25 28 26 23 21 20 18
22 24 25 29 31 33 34 33 32 31 32 32 32 33 35 34 34 36 41 42 42 42 42 41 41 37 38 39 35 32 29 25 21 21 17 25 23 25 24 21 22 19 18
26 26 27 30 32 33 33 31 29 29 30 32 32 33 34 34 34 35 36 37 39 40 40 41 40 39 38 36 32 30 29 24 25 27 24 24 21 20 20 21 20 17 17
27 29 31 31 30 30 30 29 28 27 28 30 30 31 31 32 33 34 34 35 35 36 36 37 36 34 33 33 34 32 32 30 29 27 21 16 16 15 23 17 17 13 15
24 28 30 29 28 28 27 27 25 25 26 28 29 30 30 29 30 32 31 31 32 32 32 30 29 28 28 28 28 33 32 37 32 20 13 17 20 21 16 16 12 11 4
22 23 25 27 27 25 23 22 23 23 24 25 26 25 26 26 27 27 26 26 27 28 28 28 27 26 25 24 28 27 32 33 27 23 19 18 18 18 18 13 12 17 17
21 23 20 18 20 19 20 20 20 20 21 22 22 21 20 21 20 20 19 21 22 24 26 26 27 27 27 28 27 29 29 22 18 13 12 11 12 12 17 15 15 16 18
20 18 18 16 17 16 17 17 17 16 16 17 17 16 17 17 15 14 16 18 18 19 20 21 24 25 24 24 29 30 25 23 16 10 12 12 15 18 17 16 16 16 12
19 17 15 12 11 12 11 12 13 13 11 10 11 11 10 10 10 12 16 14 15 16 16 17 20 20 22 26 33 32 26 19 14 12 14 15 15 16 15 17 17 17 13
14 13 11 9 7 7 7 8 8 8 7 7 6 5 5 6 9 11 12 11 12 13 15 15 15 16 24 30 31 27 17 8 9 10 13 15 20 22 22 22 21 22 19
8 7 6 5 4 6 8 9 9 10 10 8 7 7 6 8 10 14 11 5 7 12 16 17 19 19 25 24 22 16 10 11 12 13 14 16 17 17 18 16 17 18 14
6 4 2 4 5 6 10 12 12 12 13 12 11 10 9 9 10 13 12 6 8 8 11 14 17 21 20 17 14 11 14 14 17 17 19 20 18 17 16 16 16 15 13
10 9 9 7 10 10 10 11 13 13 14 14 13 11 11 10 10 14 13 9 8 7 9 12 15 19 21 22 20 18 19 21 22 23 23 19 18 18 18 19 17 13 11
14 15 14 12 13 13 13 11 10 6 8 11 10 12 12 11 11 12 14 13 12 9 12 12 14 16 18 19 20 20 20 19 19 20 19 18 17 18 16 14 12 12 11
15 18 18 16 16 16 18 21 14 12 12 11 11 12 9 9 11 11 10 10 8 10 12 11 10 13 14 14 18 20 19 17 15 15 12 14 15 14 13 12 11 11 11
13 17 18 19 19 20 18 18 18 16 15 14 12 10 10 11 10 9 9 8 7 8 8 9 10 11 14 15 15 16 17 15 14 12 11 11 12 11 11 10 10 10 11
14 15 18 19 17 16 16 16 17 19 16 19 17 15 14 13 12 10 9 10 10 6 4 4 3 3 6 8 11 13 13 12 11 11 11 12 12 12 12 12 13 13 11
18 19 19 17 17 18 19 16 17 20 19 19 18 18 16 14 12 11 10 9 7 6 4 2 1 3 4 5 6 7 8 10 11 11 11 11 11 11 12 12 11 11 10
18 18 20 20 18 19 18 17 17 17 16 15 13 11 9 10 13 14 12 10 9 6 3 2 2 3 4 6 7 7 8 9 9 10 10 11 11 12 12 13 13 13 13
22 19 19 19 19 20 21 21 19 18 18 18 16 11 8 10 12 10 8 7 6 4 3 2 3 4 6 7 9 9 10 11 11 12 12 12 13 13 12 12 12 12 11
23 23 21 22 22 23 22 20 20 18 17 17 14 12 9 9 9 7 7 7 5 4 3 3 4 5 6 7 8 9 9 10 10 11 11 11 12 12 12 13 13 14 13
24 24 22 22 22 23 23 21 20 19 16 12 10 9 8 8 8 6 6 5 5 4 4 5 5 6 7 8 9 10 10 10 10 10 12 12 13 14 14 14 14 15 16
26 26 25 24 23 22 22 20 18 15 13 11 9 7 6 6 5 4 4 4 4 5 6 7 8 8 8 8 9 10 11 11 12 12 12 13 13 13 14 16 16 16 15
24 24 24 23 21 20 19 17 15 12 10 8 6 4 4 3 3 4 4 5 6 7 7 9 10 10 10 11 11 11 11 13 14 14 15 15 14 15 16 16 16 16 17
22 22 22 20 18 16 14 13 11 8 7 5 3 2 2 3 4 5 6 7 8 9 9 9 10 11 12 12 12 12 12 13 15 15 15 16 17 17 18 19 19 19 18
Wind_Direction
238 240 243 245 244 245 245 247 247 250 250 247 248 246 244 241 236 234 230 233 233 232 232 230 236 239 237 237 231 220 223 224 184 169 202 211 203 210 212 220 225 233 244
250 250 254 256 250 246 247 249 249 248 247 246 247 244 241 243 240 237 232 232 233 230 234 234 234 236 236 237 225 220 225 205 212 171 193 193 200 207 214 217 224 237 246
254 253 259 263 256 252 253 253 251 250 249 246 242 243 241 241 240 241 239 235 236 237 238 236 233 233 228 225 221 220 209 210 215 213 177 182 189 202 207 220 232 238 250
261 258 261 268 265 257 258 258 254 250 249 247 244 244 246 244 242 243 242 239 240 242 241 239 235 234 227 225 218 215 203 203 204 190 172 174 182 192 207 221 231 242 255
266 265 266 272 273 268 263 261 256 250 248 249 247 244 241 243 245 247 246 245 245 242 241 240 238 237 236 234 220 203 197 196 187 167 152 164 174 173 205 225 231 255 268
280 273 273 270 271 271 266 261 254 254 251 245 241 240 243 245 249 251 249 245 244 242 240 236 235 233 233 233 224 205 200 200 180 167 161 173 199 207 206 210 237 261 272
294 286 279 274 273 272 266 253 248 248 248 242 241 243 247 250 252 249 250 247 245 242 237 233 228 226 224 208 200 205 210 198 194 196 191 204 211 219 208 223 257 248 251
299 289 282 271 271 270 260 255 252 246 241 237 238 246 252 254 251 248 242 244 241 240 237 232 225 215 205 206 193 193 188 191 205 209 220 249 244 215 219 252 259 260 268
299 294 289 279 266 258 252 249 244 244 238 235 242 246 247 248 241 233 223 230 228 226 224 221 216 204 197 196 190 185 187 206 222 231 253 248 225 222 245 255 240 250 258
297 291 282 275 269 260 245 235 231 230 234 232 237 244 246 243 231 207 209 215 206 200 199 204 210 215 197 186 190 194 194 209 218 242 245 241 241 241 244 240 241 242 249
293 292 285 265 240 222 224 220 223 204 198 192 197 204 210 209 197 187 200 206 202 194 193 198 197 196 190 194 198 200 201 226 254 261 256 254 251 249 248 241 248 258 252
278 278 267 263 241 192 187 175 170 172 160 154 154 147 156 162 174 173 185 186 197 199 195 194 189 183 190 190 192 199 230 259 273 269 256 254 252 250 246 243 235 238 240
207 201 213 172 166 173 162 150 145 156 155 145 149 140 137 150 156 175 174 153 179 188 204 205 199 189 194 196 203 238 249 256 269 252 248 254 254 256 250 227 214 219 232
162 143 141 149 149 148 145 143 144 155 152 150 149 148 158 162 161 155 172 173 164 185 186 182 191 198 204 220 232 239 242 253 251 252 249 255 250 242 217 203 201 219 237
163 149 142 148 153 139 125 120 120 127 145 147 150 145 154 171 163 172 175 181 171 171 163 164 174 192 206 221 236 246 252 251 250 249 247 235 210 195 195 208 223 217 224
174 158 152 162 150 136 123 107 101 104 109 114 110 109 104 122 149 158 167 178 183 173 176 184 187 205 223 232 241 249 245 246 243 236 225 213 208 207 208 208 227 224 229
194 163 159 158 151 136 130 120 110 93 100 110 113 116 112 116 127 142 164 176 187 186 209 216 232 243 252 250 250 248 242 236 231 234 242 231 228 222 215 220 234 244 241
201 172 164 160 154 145 140 138 136 125 102 86 80 87 90 93 101 109 142 156 148 171 198 187 190 251 276 267 251 243 237 234 234 242 245 241 235 231 227 236 240 244 244
182 167 156 158 165 152 146 142 128 115 106 108 110 102 92 105 103 115 123 128 117 100 98 85 320 305 291 269 262 260 255 248 251 249 243 241 239 240 243 243 240 239 240
159 151 148 152 150 144 139 129 123 111 109 103 92 80 100 113 97 92 96 100 98 89 71 30 353 317 290 283 277 270 263 255 254 255 254 253 249 246 243 237 231 232 238
149 150 154 150 143 136 133 134 131 130 123 111 93 81 108 104 102 96 91 83 74 65 47 1 328 303 292 284 276 273 270 266 263 260 255 249 246 242 238 234 234 238 244
143 143 146 142 138 134 132 133 132 130 132 124 115 104 109 105 98 90 77 65 55 43 15 351 329 312 299 290 284 279 275 273 268 262 256 251 248 246 242 239 240 240 244
140 140 138 134 130 128 125 127 126 127 128 126 122 113 102 88 76 64 54 43 30 11 350 333 316 306 300 297 291 284 281 280 276 265 261 257 251 248 247 246 248 248 250
142 138 138 133 131 126 123 120 119 122 125 122 112 99 87 77 69 54 31 15 360 343 333 324 317 310 303 296 287 283 282 279 274 270 264 259 257 253 251 253 253 255 256
137 137 130 127 124 124 123 119 115 114 113 110 109 94 69 47 19 5 356 351 345 333 321 315 311 307 304 299 293 286 277 273 272 268 265 263 258 254 253 253 255 255 254
130 127 123 122 119 116 115 117 121 127 127 116 95 65 23 358 349 348 347 340 328 319 315 311 306 304 303 300 298 292 286 281 275 269 262 258 256 254 252 253 255 255 255